Latest Weather Observations for Orbost

IDV60801

Issued at 6:05 pm EST Wednesday 1 October 2014 (issued every 30 minutes, with the page automatically refreshed every 10 minutes)

About weather observations | Map of weather stations | Latest weather observations for VIC | Other Formats
Station Details ID: 084145 Name: ORBOST Lat: -37.69 Lon: 148.47 Height: 62.65 m
Data from the previous 72 hours. | See also: Recent months at Orbost
Date/Time
EST
Temp
°C
App
Temp
°C
Dew
Point
Rel
Hum
%
Delta-T
°C
Wind Press
QNH
hPa
Press
MSL
hPa
Rain
since 9 am
mm
Dir
 
Spd
km/h
Gust
km/h
Spd
kts
Gust
kts
01/06:00pm 11.5 9.4 6.0 69 2.6 W 6 7 3 4 1021.9 1021.9 0.2
01/05:30pm 12.4 10.2 6.0 65 3.0 WSW 7 13 4 7 1021.9 1021.9 0.2
01/05:00pm 12.2 9.5 5.6 64 3.1 WSW 9 13 5 7 1021.8 1021.8 0.2
01/04:30pm 12.4 8.9 5.3 62 3.3 WSW 13 20 7 11 1021.6 1021.6 0.2
01/04:00pm 12.5 8.7 5.7 63 3.2 SW 15 20 8 11 1021.5 1021.5 0.2
01/03:30pm 11.5 6.2 4.9 64 3.0 SW 22 37 12 20 1021.4 1021.4 0.2
01/03:00pm 13.8 9.3 4.1 52 4.4 W 17 24 9 13 1021.1 1021.1 0.0
01/02:30pm 12.5 7.4 4.0 56 3.8 W 20 32 11 17 1021.6 1021.6 0.0
01/02:00pm 12.4 7.5 5.1 61 3.4 WSW 20 30 11 16 1021.4 1021.4 0.0
01/01:30pm 13.8 9.7 6.2 60 3.6 W 17 28 9 15 1021.4 1021.4 0.0
01/01:00pm 10.4 5.3 6.2 75 2.0 W 22 39 12 21 1021.7 1021.7 0.0
01/12:30pm 12.8 7.1 5.0 59 3.6 WSW 24 41 13 22 1021.3 1021.3 0.0
01/12:00pm 13.8 7.5 3.9 51 4.5 WSW 26 41 14 22 1021.1 1021.1 0.0
01/11:30am 12.5 6.2 3.5 54 4.0 WSW 26 35 14 19 1021.1 1021.1 0.0
01/11:00am 13.3 6.4 4.5 55 4.0 WSW 30 43 16 23 1020.9 1020.9 0.0
01/10:30am 12.4 6.6 4.6 59 3.6 WSW 24 43 13 23 1020.9 1020.9 0.0
01/10:11am 12.8 6.2 4.3 56 3.9 WSW 28 48 15 26 1020.7 1020.7 0.0
01/10:00am 12.8 6.7 5.0 59 3.6 W 26 39 14 21 1020.6 1020.6 0.0
01/09:42am 11.4 4.7 3.7 59 3.4 W 28 46 15 25 1020.5 1020.5 0.0
01/09:30am 11.3 4.7 4.1 61 3.2 W 28 43 15 23 1020.3 1020.3 0.0
01/09:00am 11.3 5.5 4.3 62 3.1 W 24 41 13 22 1020.0 1020.0 3.6
01/08:30am 10.3 4.5 4.5 67 2.6 W 24 39 13 21 1019.5 1019.5 3.6
01/08:00am 9.8 4.3 4.0 67 2.6 W 22 35 12 19 1018.9 1018.9 3.6
01/07:30am 8.8 3.8 3.8 71 2.2 W 19 30 10 16 1018.4 1018.4 3.6
01/07:00am 8.0 4.1 3.3 72 2.0 WNW 13 20 7 11 1017.9 1017.9 3.6
01/06:30am 7.2 2.9 3.1 75 1.7 W 15 24 8 13 1017.6 1017.6 3.6
01/06:00am 7.2 2.0 2.7 73 1.9 W 19 28 10 15 1016.9 1016.9 3.6
01/05:30am 7.5 1.0 2.6 71 2.0 W 26 50 14 27 1016.3 1016.3 3.6
01/05:11am 7.5 0.7 3.0 73 1.9 W 28 50 15 27 1015.9 1015.9 3.6
01/05:00am 7.6 1.9 2.7 71 2.1 W 22 39 12 21 1015.4 1015.4 3.6
01/04:30am 7.0 1.7 2.9 75 1.7 W 20 33 11 18 1014.7 1014.7 3.6
01/04:00am 7.2 1.9 2.9 74 1.8 WNW 20 37 11 20 1014.2 1014.2 3.6
01/03:30am 7.7 2.0 3.0 72 2.0 WNW 22 35 12 19 1013.8 1013.8 3.6
01/03:00am 7.8 1.3 2.9 71 2.1 W 26 43 14 23 1013.5 1013.5 3.6
01/02:30am 7.6 1.2 3.1 73 1.9 W 26 43 14 23 1013.2 1013.2 3.6
01/02:00am 7.7 2.5 3.4 74 1.8 W 20 37 11 20 1012.8 1012.8 3.6
01/01:46am 8.6 1.1 3.2 69 2.3 WSW 32 44 17 24 1013.0 1013.0 3.6
01/01:30am 8.2 4.5 2.2 66 2.5 W 11 19 6 10 1012.2 1012.2 3.6
01/01:00am 8.7 3.4 2.1 63 2.8 W 19 35 10 19 1012.1 1012.1 3.6
01/12:30am 8.0 5.3 3.8 75 1.8 WNW 7 20 4 11 1012.1 1012.1 3.6
01/12:00am 7.7 5.0 3.7 76 1.7 NW 7 13 4 7 1011.9 1011.9 3.6
 
Date/Time
EST
Temp
°C
App
Temp
°C
Dew
Point
Rel
Hum
%
Delta-T
°C
Wind Press
QNH
hPa
Press
MSL
hPa
Rain
since 9 am
mm
Dir
 
Spd
km/h
Gust
km/h
Spd
kts
Gust
kts
30/11:30pm 7.5 5.0 4.6 82 1.3 NNW 7 20 4 11 1011.8 1011.8 3.6
30/11:00pm 8.3 6.4 4.9 79 1.5 WNW 4 7 2 4 1011.7 1011.7 3.6
30/10:30pm 9.1 6.7 5.3 77 1.7 W 7 15 4 8 1011.4 1011.4 3.6
30/10:00pm 9.0 5.7 4.8 75 1.9 WNW 11 22 6 12 1011.2 1011.2 3.6
30/09:30pm 8.7 5.3 5.8 82 1.3 WNW 13 24 7 13 1012.1 1012.1 3.6
30/09:00pm 8.1 5.5 5.9 86 1.0 WNW 9 19 5 10 1010.8 1010.8 3.6
30/08:30pm 8.1 4.5 6.6 90 0.7 W 15 28 8 15 1011.4 1011.4 3.0
30/08:00pm 8.3 3.9 6.6 89 0.8 W 19 32 10 17 1011.0 1011.0 1.4
30/07:30pm 9.5 2.6 6.4 81 1.4 W 32 52 17 28 1010.0 1010.0 0.6
30/07:15pm 10.2 0.8 7.1 81 1.5 W 46 72 25 39 1009.7 1009.7 0.6
30/07:00pm 10.8 5.5 9.7 93 0.6 WSW 28 48 15 26 1008.6 1008.6 0.2
30/06:58pm 10.9 6.3 9.8 93 0.6 WSW 24 41 13 22 1008.4 1008.4 0.0
30/06:30pm 13.4 5.2 10.4 82 1.6 SW 44 67 24 36 1006.2 1006.2 0.0
30/06:23pm 14.5 5.0 9.9 74 2.4 SSW 50 69 27 37 1005.3 1005.3 0.0
30/06:21pm 15.4 4.3 8.9 65 3.3 SSW 57 69 31 37 1005.2 1005.2 0.0
30/06:19pm 19.8 12.9 7.2 44 6.4 WSW 33 56 18 30 1004.7 1004.7 0.0
30/06:18pm 21.9 15.5 5.3 34 8.3 WSW 28 44 15 24 1004.6 1004.6 0.0
30/06:00pm 22.4 16.6 4.5 31 8.9 NW 24 37 13 20 1002.3 1002.3 0.0
30/05:43pm 22.6 16.0 4.2 30 9.0 NW 28 54 15 29 1001.9 1001.9 0.0
30/05:30pm 22.5 17.0 4.1 30 9.0 NW 22 48 12 26 1002.0 1002.0 0.0
30/05:22pm 22.5 16.0 4.5 31 8.9 NW 28 48 15 26 1001.9 1001.9 0.0
30/05:00pm 23.3 16.7 4.3 29 9.4 NW 28 41 15 22 1001.9 1001.9 0.0
30/04:30pm 24.1 16.2 4.5 28 9.8 NW 35 63 19 34 1002.0 1002.0 0.0
30/04:21pm 24.5 17.7 3.2 25 10.4 NW 28 63 15 34 1001.6 1001.6 0.0
30/04:00pm 24.2 18.6 5.5 30 9.5 NW 24 41 13 22 1001.9 1001.9 0.0
30/03:34pm 25.1 18.5 4.3 26 10.4 NNW 28 48 15 26 1001.4 1001.4 0.0
30/03:30pm 25.4 19.0 5.1 27 10.3 NNW 28 41 15 22 1001.4 1001.4 0.0
30/03:00pm 25.7 20.1 5.3 27 10.5 NW 24 39 13 21 1002.1 1002.1 0.0
30/02:30pm 26.0 20.2 4.5 25 10.8 NW 24 39 13 21 1002.2 1002.2 0.0
30/02:00pm 26.1 22.0 6.2 28 10.4 NW 17 24 9 13 1002.5 1002.5 0.0
30/01:30pm 26.0 20.5 6.1 28 10.3 NW 24 35 13 19 1002.8 1002.8 0.0
30/01:00pm 25.7 20.9 7.3 31 9.8 NNW 22 44 12 24 1003.6 1003.6 0.0
30/12:30pm 25.3 20.1 7.4 32 9.5 NW 24 39 13 21 1004.4 1004.4 0.0
30/12:00pm 24.9 20.5 8.8 36 8.7 NW 22 43 12 23 1004.9 1004.9 0.0
30/11:30am 24.7 20.6 7.8 34 9.0 NW 19 35 10 19 1005.7 1005.7 0.0
30/11:00am 24.0 19.8 7.6 35 8.7 NW 19 30 10 16 1006.2 1006.2 0.0
30/10:30am 23.4 19.3 8.7 39 7.9 NW 20 32 11 17 1006.9 1006.9 0.0
30/10:00am 21.9 20.8 8.4 42 7.1 W 4 9 2 5 1007.8 1007.7 0.0
30/09:30am 20.9 20.8 10.7 52 5.6 WNW 2 7 1 4 1008.3 1008.3 0.0
30/09:00am 17.9 18.3 12.4 70 3.1 SSW 2 4 1 2 1008.9 1008.9 0.0
30/08:30am 15.6 15.4 10.4 71 2.7 SW 2 6 1 3 1009.2 1009.2 0.0
30/08:00am 13.7 13.5 9.2 74 2.3 CALM 0 0 0 0 1009.3 1009.3 0.0
30/07:30am 11.6 11.1 7.7 77 1.9 CALM 0 6 0 3 1009.4 1009.4 0.0
30/07:00am 9.7 9.0 7.1 84 1.2 CALM 0 0 0 0 1009.6 1009.6 0.0
30/06:30am 8.2 7.4 6.3 88 0.9 CALM 0 6 0 3 1009.8 1009.8 0.0
30/06:00am 7.2 5.6 6.3 94 0.4 N 4 11 2 6 1009.9 1009.9 0.0
30/05:30am 6.9 5.6 6.0 94 0.4 ENE 2 4 1 2 1009.8 1009.8 0.0
30/05:00am 7.4 6.6 6.3 93 0.5 CALM 0 0 0 0 1009.9 1009.9 0.0
30/04:30am 7.5 6.3 6.6 94 0.4 SE 2 4 1 2 1009.8 1009.8 0.0
30/04:00am 7.4 6.2 6.3 93 0.5 ESE 2 4 1 2 1010.2 1010.2 0.0
30/03:30am 7.5 6.6 6.1 91 0.6 CALM 0 0 0 0 1010.6 1010.6 0.0
30/03:00am 8.9 7.4 6.7 86 1.0 NE 4 7 2 4 1010.7 1010.7 0.0
30/02:30am 8.1 6.3 7.0 93 0.5 NNE 6 7 3 4 1011.1 1011.1 0.0
30/02:00am 8.5 7.8 7.0 90 0.7 CALM 0 2 0 1 1011.3 1011.3 0.0
30/01:30am 8.9 7.6 7.5 91 0.7 N 4 4 2 2 1011.2 1011.2 0.0
30/01:00am 8.0 6.3 6.0 87 0.9 NW 4 6 2 3 1011.4 1011.4 0.0
30/12:30am 10.1 9.6 7.9 86 1.1 CALM 0 4 0 2 1011.6 1011.6 0.0
30/12:00am 9.9 8.2 7.5 85 1.1 N 6 9 3 5 1011.6 1011.6 0.0
 
Date/Time
EST
Temp
°C
App
Temp
°C
Dew
Point
Rel
Hum
%
Delta-T
°C
Wind Press
QNH
hPa
Press
MSL
hPa
Rain
since 9 am
mm
Dir
 
Spd
km/h
Gust
km/h
Spd
kts
Gust
kts
29/11:30pm 9.9 9.0 7.7 86 1.1 N 2 4 1 2 1011.7 1011.7 0.0
29/11:00pm 9.7 8.4 7.8 88 0.9 NNE 4 6 2 3 1011.8 1011.8 0.0
29/10:30pm 9.1 8.5 7.4 89 0.8 CALM 0 4 0 2 1012.3 1012.3 0.0
29/10:00pm 9.9 9.4 7.7 86 1.1 CALM 0 0 0 0 1012.7 1012.7 0.0
29/09:30pm 10.2 9.0 8.0 86 1.1 NNE 4 6 2 3 1013.0 1013.0 0.0
29/09:00pm 11.0 10.5 7.9 81 1.5 CALM 0 2 0 1 1013.2 1013.2 0.0
29/08:30pm 11.9 11.3 7.6 75 2.1 CALM 0 0 0 0 1013.5 1013.5 0.0
29/08:00pm 12.6 12.1 7.9 73 2.3 CALM 0 0 0 0 1013.7 1013.7 0.0
29/07:30pm 12.7 11.8 7.8 72 2.4 E 2 4 1 2 1013.5 1013.5 0.0
29/07:00pm 13.0 11.8 8.1 72 2.4 E 4 6 2 3 1013.1 1013.1 0.0
29/06:30pm 13.8 12.6 8.0 68 2.9 E 4 6 2 3 1012.7 1012.7 0.0
29/06:00pm 14.9 13.4 8.4 65 3.3 ESE 6 7 3 4 1012.4 1012.4 0.0
29/05:30pm 16.1 14.8 9.1 63 3.6 SE 6 11 3 6 1012.2 1012.2 0.0
29/05:00pm 16.9 15.4 9.1 60 4.1 SE 7 13 4 7 1011.8 1011.8 0.0
29/04:30pm 17.3 15.2 8.4 56 4.6 SSE 9 19 5 10 1011.3 1011.3 0.0
29/04:00pm 17.6 15.6 8.7 56 4.6 SSE 9 15 5 8 1011.1 1011.1 0.0
29/03:30pm 17.7 15.2 8.3 54 4.8 SSE 11 17 6 9 1011.2 1011.2 0.0
29/03:00pm 18.5 16.8 8.5 52 5.2 SE 7 11 4 6 1011.0 1011.0 0.0
29/02:30pm 18.2 16.0 7.9 51 5.3 SE 9 17 5 9 1011.3 1011.3 0.0
29/02:00pm 18.4 16.3 8.1 51 5.3 SE 9 15 5 8 1011.5 1011.5 0.0
29/01:30pm 18.5 16.7 7.9 50 5.4 SSE 7 13 4 7 1011.7 1011.7 0.0
29/01:00pm 18.3 16.0 7.4 49 5.5 SW 9 20 5 11 1012.1 1012.1 0.0
29/12:30pm 18.3 15.6 7.4 49 5.5 SSW 11 17 6 9 1012.3 1012.3 0.0
29/12:00pm 18.5 15.4 9.0 54 5.0 SW 15 22 8 12 1012.6 1012.6 0.0
29/11:30am 18.3 15.3 9.1 55 4.8 SW 15 22 8 12 1012.9 1012.9 0.0
29/11:00am 18.3 16.5 9.6 57 4.6 SSW 9 19 5 10 1013.1 1013.1 0.0
29/10:30am 17.8 15.4 8.6 55 4.8 SW 11 19 6 10 1013.4 1013.4 0.0
29/10:00am 18.4 16.2 9.2 55 4.8 SW 11 19 6 10 1013.6 1013.6 0.0
29/09:30am 17.3 14.0 8.2 55 4.7 WSW 15 20 8 11 1013.7 1013.7 0.0
29/09:00am 16.7 12.9 7.4 54 4.7 SW 17 28 9 15 1013.9 1013.9 0.0
29/08:30am 16.9 14.8 8.1 56 4.5 SW 9 15 5 8 1013.5 1013.5 0.0
29/08:00am 16.9 15.3 6.4 50 5.2 WNW 4 6 2 3 1012.8 1012.8 0.0
29/07:30am 16.3 14.8 8.5 60 4.0 N 6 7 3 4 1012.4 1012.4 0.0
29/07:00am 14.9 13.8 6.7 58 4.0 N 2 6 1 3 1012.3 1012.3 0.0
29/06:30am 13.4 11.6 7.2 66 3.0 N 6 9 3 5 1012.1 1012.1 0.0
29/06:00am 13.5 11.7 7.9 69 2.8 N 7 11 4 6 1011.6 1011.6 0.0
29/05:30am 13.3 11.6 8.4 72 2.4 N 7 11 4 6 1011.1 1011.1 0.0
29/05:00am 12.9 12.2 8.6 75 2.2 NNE 2 6 1 3 1010.7 1010.7 0.0
29/04:30am 13.9 12.5 8.7 71 2.6 SSW 6 9 3 5 1010.7 1010.7 0.0
29/04:00am 14.8 11.5 9.4 70 2.8 WSW 17 30 9 16 1010.2 1010.2 0.0
29/03:30am 15.1 11.8 9.7 70 2.8 WSW 17 28 9 15 1009.2 1009.2 0.0
29/03:00am 16.9 10.8 8.3 57 4.4 SW 30 44 16 24 1007.5 1007.4 0.0
29/02:51am 20.6 15.5 5.8 38 7.4 SW 22 33 12 18 1006.7 1006.7 0.0
29/02:30am 22.7 17.7 4.7 31 8.9 NNW 20 32 11 17 1004.7 1004.7 0.0
29/02:00am 23.0 17.6 4.5 30 9.2 NNW 22 33 12 18 1004.6 1004.6 0.0
29/01:30am 23.5 17.0 4.5 29 9.4 NNW 28 44 15 24 1004.7 1004.7 0.0
29/01:12am 23.6 17.1 4.5 29 9.5 NNW 28 46 15 25 1004.5 1004.5 0.0
29/01:00am 23.3 17.2 4.8 30 9.3 N 26 37 14 20 1004.7 1004.7 0.0
29/12:32am 23.4 16.9 4.9 30 9.2 N 28 48 15 26 1004.9 1004.9 0.0
29/12:30am 23.5 17.4 4.9 30 9.3 N 26 48 14 26 1005.1 1005.1 0.0
29/12:00am 22.0 19.0 5.8 35 8.2 NNW 11 24 6 13 1006.2 1006.2 0.0
 
Date/Time
EST
Temp
°C
App
Temp
°C
Dew
Point
Rel
Hum
%
Delta-T
°C
Wind Press
QNH
hPa
Press
MSL
hPa
Rain
since 9 am
mm
Dir
 
Spd
km/h
Gust
km/h
Spd
kts
Gust
kts
28/11:30pm 21.7 17.9 6.0 36 7.9 N 15 33 8 18 1006.4 1006.4 0.0
28/11:00pm 20.5 18.6 6.8 41 7.0 N 6 11 3 6 1006.8 1006.8 0.0
28/10:30pm 22.9 19.4 7.1 36 8.2 N 15 20 8 11 1006.8 1006.8 0.0
28/10:00pm 22.1 20.3 7.1 38 7.8 N 6 15 3 8 1007.5 1007.4 0.0
28/09:30pm 23.4 19.9 7.1 35 8.5 N 15 24 8 13 1007.2 1007.2 0.0
28/09:00pm 23.2 21.7 6.9 35 8.5 NNE 4 9 2 5 1007.8 1007.7 0.0
28/08:30pm 23.0 19.9 7.1 36 8.3 NNE 13 26 7 14 1007.2 1007.2 0.0
28/08:00pm 22.6 20.7 7.6 38 7.9 NNE 7 11 4 6 1008.6 1008.6 0.0
28/07:30pm 22.1 20.4 7.5 39 7.6 N 6 9 3 5 1008.5 1008.5 0.0
28/07:00pm 22.6 19.9 7.2 37 8.0 N 11 17 6 9 1008.0 1007.9 0.0
28/06:30pm 22.9 19.4 7.4 37 8.1 N 15 22 8 12 1007.9 1007.8 0.0

Other Formats:

Comma delimited format used in spreadsheet applications
http://www.bom.gov.au/fwo/IDV60801/IDV60801.95918.axf

JavaScript Object Notation format (JSON) in row-major order
http://www.bom.gov.au/fwo/IDV60801/IDV60801.95918.json